Meteo Giornale » Osservazioni meteo Stati Uniti (USA) » Swansboro Bogue Fld Marine Corps Auxiliary Landing Fld
ore: 09:51 - Osservazioni Meteo Swansboro Bogue Fld Marine Corps Auxiliary Landing Fld
Lat. 34° 41' N Lon. 77° 1' W Alt. 6 metri s.l.m.
27 °C
Sereno
Temp. 24 Ore
23 °C
29 °C
Nord-Ovest
9.3 Km/h
Dew point 23 °C
Umidità 78 %
Visibilità 14 Km
Il sole sorge alle ore 06:40
Il sole tramonta alle ore 19:36
| Data e Ora | Cielo e Fenomeni | T °C | DP °C | Um. % | Pres. hPa | Vis. km | Vento km/h | |
|---|---|---|---|---|---|---|---|---|
| Oggi h: 09:51 | Sereno | 27 | 23 | 78 | 1020 | 14 | NO 9.3 | |
| Oggi h: 08:51 | Sereno | 25 | 24 | 94 | 1019 | 13 | N 7.4 | |
| Oggi h: 07:51 | Poco Nuvoloso | 23 | 23 | 100 | 1019 | 11 | N 0 | |
| Oggi h: 07:27 | Foschia | 23 | 23 | 100 | 1019 | 2 | N 0 | |
| Oggi h: 07:17 | Nebbia | 23 | 23 | 100 | 1019 | 2 | N 0 | |
| Oggi h: 07:10 | Nebbia | 23 | 23 | 100 | 1020 | 2 | N 0 | |
| Oggi h: 07:01 | Foschia | 23 | 23 | 100 | 1020 | 2 | N 0 | |
| Oggi h: 06:51 | Foschia | 23 | 23 | 100 | 1020 | 10 | N 0 | |
| Oggi h: 05:51 | Nuvoloso | 23 | 23 | 100 | 1019 | 13 | N 7.4 | |
| Oggi h: 05:32 | Foschia | 23 | 23 | 100 | 1019 | 5 | N 9.3 | |
| Oggi h: 05:18 | Foschia | 23 | 22 | 94 | 1019 | 2 | N 11.1 | |
| Oggi h: 05:13 | Foschia | 23 | 22 | 94 | 1019 | 2 | N 11.1 | |
| Oggi h: 04:51 | Sereno | 23 | 22 | 94 | 1019 | 13 | N 9.3 | |
| Oggi h: 02:51 | Sereno | 23 | 23 | 100 | 1019 | 13 | N 0 | |
| Oggi h: 01:51 | Poco Nuvoloso | 23 | 22 | 94 | 1020 | 13 | N 0 | |
| Oggi h: 00:51 | Sereno | 23 | 23 | 100 | 1020 | 14 | N 0 | |
| Ieri h: 23:51 | Sereno | 24 | 23 | 94 | 1020 | 14 | N 0 | |
| Ieri h: 23:06 | Nuvoloso | 24 | 23 | 94 | 1020 | 14 | N 0 | |
| Ieri h: 22:51 | Molto Nuvoloso | 24 | 23 | 94 | 1020 | 14 | NE 7.4 | |
| Ieri h: 21:51 | Sereno | 24 | 22 | 88 | 1020 | 14 | N 0 | |
| Ieri h: 20:51 | Sereno | 24 | 22 | 88 | 1020 | 14 | NE 7.4 | |
| Ieri h: 19:51 | Sereno | 24 | 23 | 94 | 1019 | 14 | N 9.3 | |
| Ieri h: 18:51 | Sereno | 25 | 22 | 83 | 1020 | 14 | N 9.3 | |
| Ieri h: 17:51 | Poco Nuvoloso | 26 | 23 | 83 | 1020 | 14 | N/NO 9.3 | |
| Ieri h: 16:51 | Sereno | 28 | 24 | 78 | 1020 | 14 | SE 9.3 | |
| Ieri h: 15:51 | Temporale | 28 | 23 | 74 | 1020 | 13 | N 0 | |
| Ieri h: 15:21 | Temporale | 29 | 23 | 70 | 1020 | 13 | S 18.5 | |



